Content
SEND FEEDBACK

Daily
Averages
Monthly
Summary
United States of America

GREENSBURG, INDIANA


Home > North America > United States > Indiana
Elevation: 949 feet     Latitude: 39 20N     Longitude: 085 28W

WEATHER
 
SELECT A DAY
Number of Records: 172,848;   Date Range: 10/15/98 - 7/29/14
 
SHARE

PRINT THIS DATA

[ ← Previous Day ]
WEATHER ALMANAC - FEBRUARY 8, 2014
[ Next Day → ]
[ °C ]   °F
Weather ElementAverageHighLow
Temperature19.1 °F27 °F (9:30 pm)5 °F (1:53 am)
Dewpoint10.3 °F21.9 °F (11:53 pm)-2 °F (1:53 am)
Humidity68.8 %81 % (11:53 pm)57 % (9:53 am)
Barometer30.26 in30.40 in (1:53 am)30.13 in (11:12 pm)
Wind Speed5.9 mph10.4 mph (2:53 pm)
Weather ElementAverage
Visibility8.4 mi
Wind DirectionSE (134.5 °)

Weather ElementTotal
Precipitation---
Heating Degree Days49 (Base 65)
Averaged from 33 records on February 8, 2014
WEATHER CONDITIONS BREAKOUT
WIND DIRECTION BREAKOUT
WEATHER BY HOUR - FEBRUARY 8, 2014
[ °C ]   °F
Local TimeTemperatureDewpointHumidityBarometerVisibilityWind DirectionWind SpeedGust SpeedPrecipitationEventsConditions
1:53 AM5.0 °F-2.0 °F73 %30.40 in10.0 miCalmClear
2:53 AM6.1 °F-0.9 °F73 %30.39 in10.0 miNNE (20°)3.5 mphMostly Cloudy
3:53 AM8.1 °F0.0 °F70 %30.37 in10.0 miENE (70°)4.6 mphOvercast
4:53 AM10.0 °F0.0 °F64 %30.35 in10.0 miSE (130°)5.8 mphOvercast
5:53 AM12.0 °F1.0 °F61 %30.35 in10.0 miCalmOvercast
6:53 AM12.9 °F1.0 °F59 %30.34 in10.0 miSE (140°)4.6 mphOvercast
7:53 AM14.0 °F1.9 °F59 %30.33 in10.0 miNNE (30°)3.5 mphOvercast
8:53 AM15.1 °F3.9 °F61 %30.34 in10.0 miENE (70°)6.9 mphOvercast
9:53 AM16.0 °F3.0 °F57 %30.34 in10.0 miENE (70°)6.9 mphOvercast
10:07 AM16.0 °F3.9 °F59 %30.30 in5.0 miEast (80°)5.8 mph0.00 inSnowLight Snow
10:24 AM16.0 °F6.1 °F65 %30.30 in2.5 miEast (100°)4.6 mph0.00 inSnowLight Snow
10:31 AM16.0 °F7.0 °F68 %30.30 in3.0 miESE (110°)4.6 mph0.00 inSnowLight Snow
10:50 AM15.8 °F6.8 °F68 %30.29 in2.5 miSE (130°)5.8 mph0.00 inSnowLight Snow
10:53 AM16.0 °F8.1 °F71 %30.34 in2.5 miESE (120°)5.8 mph0.00 inSnowLight Snow
11:20 AM17.1 °F9.0 °F71 %30.29 in2.0 miSSE (150°)5.8 mph0.00 inSnowLight Snow
11:28 AM17.1 °F9.0 °F71 %30.28 in3.0 miSSE (150°)6.9 mph0.00 inSnowLight Snow
11:53 AM18.0 °F10.9 °F74 %30.32 in7.0 miSE (140°)6.9 mph0.00 inOvercast
12:53 PM19.9 °F12.9 °F74 %30.28 in10.0 miSSW (200°)9.2 mph0.00 inOvercast
1:53 PM19.9 °F12.9 °F74 %30.23 in10.0 miSouth (180°)8.1 mphOvercast
2:53 PM23.0 °F15.1 °F72 %30.21 in10.0 miSSE (150°)10.4 mphOvercast
3:53 PM25.0 °F16.0 °F69 %30.19 in10.0 miSSE (160°)6.9 mphOvercast
4:15 PM25.0 °F16.0 °F69 %30.15 in10.0 miSouth (180°)6.9 mphOvercast
4:53 PM24.1 °F16.0 °F71 %30.21 in10.0 miWSW (250°)3.5 mphOvercast
5:45 PM25.0 °F16.0 °F69 %30.15 in10.0 miSSE (160°)8.1 mphOvercast
5:53 PM25.0 °F16.0 °F69 %30.19 in10.0 miSSE (160°)9.2 mphOvercast
6:53 PM26.1 °F16.0 °F66 %30.19 in10.0 miSouth (180°)6.9 mphOvercast
7:53 PM26.1 °F16.0 °F66 %30.20 in10.0 miSouth (190°)6.9 mphOvercast
8:53 PM26.1 °F18.0 °F71 %30.18 in10.0 miSouth (190°)4.6 mphOvercast
9:30 PM27.0 °F18.0 °F69 %30.14 in10.0 miSouth (190°)5.8 mphOvercast
9:53 PM27.0 °F19.0 °F72 %30.17 in10.0 miSouth (180°)5.8 mphOvercast
10:53 PM27.0 °F19.9 °F75 %30.17 in10.0 miSouth (180°)6.9 mphOvercast
11:12 PM27.0 °F21.0 °F78 %30.13 in10.0 miSouth (190°)5.8 mphOvercast
11:53 PM27.0 °F21.9 °F81 %30.16 in10.0 miSouth (190°)8.1 mphOvercast
Hourly data recorded from KGEZ, located miles away from Greensburg, Indiana







STORIES FROM OUR PARTNERS